Regional Weather Roundup
Issued by NWS

Home | Current Version | Previous Version | Text Only | Print | Product List | Glossary Off
Versions: 1 2 3 4 5 6 7 8 9 10 11 12 13 14 15 16 17 18 19 20 21 22 23 24 25 26 27 28 29 30 31 32 33 34 35 36 37 38 39 40 41 42 43 44 45 46 47 48 49 50

076
ASUS43 KLMK 042002
RWRKY
KENTUCKY REGIONAL WEATHER ROUNDUP
NATIONAL WEATHER SERVICE LOUISVILLE KY
400 PM EDT WED MAY 04 2016

NOTE "FAIR" INDICATES FEW OR NO CLOUDS BELOW 12,000 FEET
WITH NO SIGNIFICANT WEATHER AND/OR OBSTRUCTIONS TO VISIBILITY.

KYZ001>023-026-027-061>063-070>075-042100-
WESTERN AND SOUTH CENTRAL KENTUCKY

CITY           SKY/WX    TMP DP  RH WIND       PRES   REMARKS
PADUCAH        MOSUNNY   71  45  39 N14G28    29.76R
HENDERSON      MOSUNNY   66  43  42 NW16      29.73S
OWENSBORO      MOSUNNY   67  46  46 NW15G26   29.72S
HOPKINSVILLE   MOSUNNY   65  51  60 W12G18    29.71F
BOWLING GREEN  PTSUNNY   66  51  58 W15       29.70F
GLASGOW        NOT AVBL
$$

KYZ024-025-028>034-038-045-046-053-042100-
NORTH CENTRAL KENTUCKY

CITY           SKY/WX    TMP DP  RH WIND       PRES   REMARKS
LOUISVILLE/SDF LGT RAIN  56  41  57 NW17G31   29.70S
LOUISVILLE/LOU PTSUNNY   56  41  57 NW10G24   29.71R
FORT KNOX      PTSUNNY   60  51  71 W9G20     29.68F
$$

KYZ035>037-039>044-047>052-055>060-089>105-042100-
NORTHEAST KENTUCKY

CITY           SKY/WX    TMP DP  RH WIND       PRES   REMARKS
LEXINGTON      CLOUDY    57  51  80 W13G18    29.68F
COVINGTON      PTSUNNY   54  48  80 W5        29.66F
FRANKFORT      CLOUDY    57  52  83 NW9G20    29.67F
$$

KYZ054-064>069-076>088-106>120-042100-
SOUTHEAST KENTUCKY

CITY           SKY/WX    TMP DP  RH WIND       PRES   REMARKS
JACKSON        LGT RAIN  53  45  74 VRB7G18   29.69R
LONDON         RAIN      52  49  89 W12G23    29.74R FOG
SOMERSET       NOT AVBL
MIDDLESBORO    NOT AVBL
MONTICELLO     CLOUDY    56  51  84 W16       29.73F
$$





USA.gov is the U.S. government's official web portal to all federal, state and local government web resources and services.